DLH422 EDDH-ENBR

Flight info

Callsign DLH422
Flight time N/A
Altitude 36000
Route ELSOB3G ELSOB Y348 OMWEG DCT BADOS DCT ATTUS DCT BADAB
Aircraft A320/M-SDE3FGHIRWY/LB1

Departure

Time 2026-04-21 11:34
Airport Hamburg Helmut Schmidt Airport (EDDH)

Arrival

Time N/A
Airport Bergen Airport, Flesland (ENBR)
Time Latitude Longitude Altitude Speed Heading
2026-04-21 11:17 53.63294 10.00359 51 ft 0 kts 86°
2026-04-21 11:26 53.63294 10.00356 51 ft 2 kts 86°
2026-04-21 11:27 53.63293 10.00328 51 ft 2 kts 86°
2026-04-21 11:27 53.63292 10.00299 51 ft 2 kts 86°
2026-04-21 11:27 53.63291 10.00270 51 ft 2 kts 103°
2026-04-21 11:27 53.63295 10.00243 48 ft 2 kts 136°
2026-04-21 11:28 53.63303 10.00233 46 ft 0 kts 172°
2026-04-21 11:30 53.63278 10.00238 47 ft 12 kts 174°
2026-04-21 11:30 53.63181 10.00250 51 ft 13 kts 176°
2026-04-21 11:30 53.63095 10.00260 51 ft 12 kts 176°
2026-04-21 11:31 53.63015 10.00202 49 ft 13 kts 212°
2026-04-21 11:31 53.62942 10.00126 50 ft 12 kts 212°
2026-04-21 11:31 53.62879 10.00052 48 ft 10 kts 225°
2026-04-21 11:31 53.62843 9.99956 50 ft 9 kts 243°
2026-04-21 11:32 53.62816 9.99863 48 ft 9 kts 244°
2026-04-21 11:32 53.62816 9.99791 48 ft 4 kts 310°
2026-04-21 11:32 53.62847 9.99760 49 ft 6 kts 334°
2026-04-21 11:32 53.62873 9.99738 49 ft 0 kts 333°
2026-04-21 11:33 53.62880 9.99732 49 ft 8 kts 333°
2026-04-21 11:33 53.63166 9.99487 49 ft 82 kts 333°
2026-04-21 11:33 53.63856 9.98894 48 ft 138 kts 332°
2026-04-21 11:33 53.64827 9.98057 268 ft 163 kts 338°
2026-04-21 11:34 53.65826 9.97236 1028 ft 160 kts 338°
2026-04-21 11:34 53.66854 9.96384 1572 ft 173 kts 339°
2026-04-21 11:34 53.68004 9.95403 1905 ft 198 kts 338°
2026-04-21 11:34 53.69272 9.94305 2524 ft 208 kts 337°
2026-04-21 11:35 53.70549 9.93103 3304 ft 216 kts 328°
2026-04-21 11:35 53.71725 9.91502 3692 ft 240 kts 324°
2026-04-21 11:35 53.73051 9.89626 4144 ft 261 kts 323°
2026-04-21 11:35 53.74455 9.87603 4963 ft 268 kts 323°
2026-04-21 11:36 53.75883 9.85529 5831 ft 272 kts 323°
2026-04-21 11:36 53.77325 9.83427 6728 ft 275 kts 323°
2026-04-21 11:36 53.78785 9.81304 7563 ft 279 kts 323°
2026-04-21 11:36 53.80269 9.79151 8380 ft 283 kts 323°
2026-04-21 11:37 53.81778 9.76967 9188 ft 288 kts 323°
2026-04-21 11:37 53.83312 9.74748 9994 ft 293 kts 323°
2026-04-21 11:37 53.84871 9.72494 10643 ft 298 kts 323°
2026-04-21 11:37 53.86481 9.70171 10929 ft 320 kts 323°
2026-04-21 11:38 53.88223 9.67652 11309 ft 336 kts 323°
2026-04-21 11:38 53.90015 9.65050 11982 ft 342 kts 323°
2026-04-21 11:38 53.91830 9.62409 12719 ft 346 kts 323°
2026-04-21 11:38 53.93664 9.59733 13450 ft 350 kts 323°
2026-04-21 11:39 53.95516 9.57019 14160 ft 354 kts 323°
2026-04-21 11:39 53.97385 9.54275 14799 ft 357 kts 323°
2026-04-21 11:39 53.99248 9.51539 15386 ft 360 kts 323°
2026-04-21 11:39 54.01247 9.48970 15987 ft 360 kts 333°
2026-04-21 11:40 54.03413 9.46831 16603 ft 363 kts 334°
2026-04-21 11:40 54.05614 9.44677 17217 ft 366 kts 334°
2026-04-21 11:40 54.07829 9.42508 17829 ft 369 kts 334°
2026-04-21 11:40 54.10065 9.40312 18445 ft 373 kts 334°
2026-04-21 11:41 54.12319 9.38088 18990 ft 376 kts 334°
2026-04-21 11:41 54.14589 9.35845 19488 ft 379 kts 334°
2026-04-21 11:41 54.16878 9.33580 19984 ft 383 kts 334°
2026-04-21 11:41 54.19162 9.31317 20499 ft 386 kts 334°
2026-04-21 11:42 54.21495 9.29003 21008 ft 389 kts 334°
2026-04-21 11:42 54.23846 9.26669 21490 ft 392 kts 334°
2026-04-21 11:42 54.26213 9.24313 21988 ft 395 kts 334°
2026-04-21 11:42 54.28602 9.21933 22465 ft 399 kts 334°
2026-04-21 11:43 54.31006 9.19536 22949 ft 402 kts 334°
2026-04-21 11:43 54.33431 9.17113 23399 ft 405 kts 334°
2026-04-21 11:43 54.35872 9.14674 23854 ft 408 kts 335°
2026-04-21 11:43 54.38423 9.12580 24236 ft 406 kts 343°
2026-04-21 11:44 54.41033 9.10868 24572 ft 409 kts 343°
2026-04-21 11:44 54.43705 9.09121 24908 ft 412 kts 344°
2026-04-21 11:44 54.46398 9.07360 25258 ft 415 kts 344°
2026-04-21 11:44 54.49108 9.05584 25615 ft 418 kts 344°
2026-04-21 11:45 54.51833 9.03788 25963 ft 421 kts 343°
2026-04-21 11:45 54.54578 9.01968 26314 ft 424 kts 343°
2026-04-21 11:45 54.57340 9.00131 26661 ft 427 kts 343°
2026-04-21 11:45 54.60118 8.98281 26999 ft 429 kts 344°
2026-04-21 11:46 54.62916 8.96417 27331 ft 432 kts 344°
2026-04-21 11:46 54.65689 8.94568 27651 ft 435 kts 344°
2026-04-21 11:46 54.68521 8.92684 27961 ft 438 kts 344°
2026-04-21 11:46 54.71379 8.90781 28268 ft 441 kts 344°
2026-04-21 11:47 54.74249 8.88867 28587 ft 444 kts 344°
2026-04-21 11:47 54.77139 8.86937 28920 ft 446 kts 344°
2026-04-21 11:47 54.80046 8.84989 29226 ft 449 kts 344°
2026-04-21 11:47 54.82969 8.83020 29524 ft 452 kts 344°
2026-04-21 11:48 54.85906 8.81037 29850 ft 454 kts 344°
2026-04-21 11:48 54.88856 8.79037 30156 ft 457 kts 344°
2026-04-21 11:48 54.91788 8.77073 30443 ft 458 kts 345°
2026-04-21 11:48 54.94795 8.75206 30695 ft 459 kts 346°
2026-04-21 11:49 54.97835 8.73439 30906 ft 461 kts 347°
2026-04-21 11:49 55.00895 8.71713 31143 ft 463 kts 347°
2026-04-21 11:49 55.03966 8.69988 31401 ft 465 kts 347°
2026-04-21 11:49 55.07043 8.68232 31670 ft 466 kts 346°
2026-04-21 11:50 55.10110 8.66441 32039 ft 465 kts 346°
2026-04-21 11:50 55.13167 8.64625 32412 ft 463 kts 345°
2026-04-21 11:50 55.16220 8.62792 32624 ft 466 kts 345°
2026-04-21 11:50 55.19254 8.60963 32759 ft 470 kts 345°
2026-04-21 11:51 55.22355 8.59095 32891 ft 472 kts 345°
2026-04-21 11:51 55.25469 8.57223 33091 ft 474 kts 345°
2026-04-21 11:51 55.28599 8.55345 33284 ft 476 kts 345°
2026-04-21 11:51 55.31738 8.53470 33485 ft 477 kts 345°
2026-04-21 11:52 55.34890 8.51589 33690 ft 479 kts 345°
2026-04-21 11:52 55.38042 8.49695 33894 ft 480 kts 345°
2026-04-21 11:52 55.41204 8.47787 34092 ft 481 kts 345°
2026-04-21 11:52 55.44373 8.45869 34310 ft 482 kts 345°
2026-04-21 11:53 55.47508 8.43967 34502 ft 483 kts 345°
2026-04-21 11:53 55.50680 8.42039 34779 ft 481 kts 344°
2026-04-21 11:53 55.53847 8.40112 34991 ft 481 kts 344°
2026-04-21 11:53 55.57013 8.38186 35180 ft 482 kts 344°
2026-04-21 11:54 55.60188 8.36254 35345 ft 483 kts 344°
2026-04-21 11:54 55.63370 8.34315 35549 ft 484 kts 344°
2026-04-21 11:54 55.66550 8.32366 35754 ft 484 kts 344°
2026-04-21 11:54 55.69732 8.30412 35992 ft 484 kts 343°
2026-04-21 11:55 55.72911 8.28463 36212 ft 483 kts 343°
2026-04-21 11:55 55.76088 8.26509 36385 ft 482 kts 343°
2026-04-21 11:55 55.82326 8.22658 36420 ft 468 kts 343°
2026-04-21 11:56 55.85604 8.20622 36434 ft 462 kts 343°
2026-04-21 12:05 55.89016 8.18520 36439 ft 453 kts 344°
2026-04-21 12:06 55.94910 8.14874 36434 ft 446 kts 344°
2026-04-21 12:06 56.00770 8.11222 36437 ft 446 kts 343°
2026-04-21 12:07 56.06629 8.07546 36436 ft 446 kts 343°
2026-04-21 12:07 56.12449 8.03900 36440 ft 446 kts 343°
2026-04-21 12:08 56.18318 8.00229 36442 ft 446 kts 343°
2026-04-21 12:08 56.24177 7.96530 36442 ft 447 kts 343°
2026-04-21 12:09 56.30041 7.92808 36448 ft 447 kts 343°
2026-04-21 12:09 56.35867 7.89122 36435 ft 447 kts 343°
2026-04-21 12:10 56.41728 7.85389 36442 ft 447 kts 343°
2026-04-21 12:10 56.47596 7.81635 36447 ft 447 kts 343°
2026-04-21 12:11 56.53468 7.77878 36456 ft 447 kts 343°
2026-04-21 12:11 56.59339 7.74106 36460 ft 447 kts 343°
2026-04-21 12:12 56.65203 7.70322 36447 ft 447 kts 343°
2026-04-21 12:12 56.71030 7.66550 36465 ft 448 kts 343°
2026-04-21 12:13 56.76899 7.62734 36462 ft 448 kts 343°
2026-04-21 12:13 56.82767 7.58912 36471 ft 448 kts 342°
2026-04-21 12:14 56.88634 7.55071 36466 ft 448 kts 342°
2026-04-21 12:14 56.94502 7.51220 36476 ft 450 kts 342°
2026-04-21 12:15 57.00420 7.47333 36485 ft 460 kts 342°
2026-04-21 12:15 57.06463 7.43337 36485 ft 463 kts 342°
2026-04-21 12:16 57.12522 7.39317 36485 ft 463 kts 342°
2026-04-21 12:16 57.18574 7.35279 36487 ft 463 kts 342°
2026-04-21 12:17 57.24632 7.31243 36491 ft 463 kts 342°
2026-04-21 12:17 57.30644 7.27221 36490 ft 463 kts 342°
2026-04-21 12:18 57.36695 7.23158 36490 ft 463 kts 342°
2026-04-21 12:18 57.42748 7.19074 36489 ft 463 kts 342°
2026-04-21 12:19 57.48844 7.14948 36491 ft 469 kts 341°
2026-04-21 12:19 57.54943 7.10804 36491 ft 470 kts 341°
2026-04-21 12:20 57.61090 7.06604 36489 ft 470 kts 341°
2026-04-21 12:20 57.67216 7.02410 36490 ft 470 kts 341°
2026-04-21 12:21 57.73358 6.98200 36490 ft 470 kts 341°
2026-04-21 12:21 57.79462 6.93986 36479 ft 470 kts 341°
2026-04-21 12:22 57.85595 6.89734 36490 ft 470 kts 341°
2026-04-21 12:22 57.91646 6.85535 36487 ft 470 kts 341°
2026-04-21 12:23 57.97746 6.81293 36480 ft 470 kts 341°
2026-04-21 12:23 58.03877 6.77011 36486 ft 471 kts 341°
2026-04-21 12:24 58.10030 6.72700 36474 ft 461 kts 341°
2026-04-21 12:24 58.15894 6.68556 36480 ft 450 kts 341°
2026-04-21 12:25 58.21627 6.64505 36481 ft 448 kts 341°
2026-04-21 12:25 58.27448 6.60392 36479 ft 448 kts 341°
2026-04-21 12:26 58.33286 6.56228 36474 ft 448 kts 340°
2026-04-21 12:26 58.38133 6.52754 36478 ft 448 kts 340°
2026-04-21 12:27 58.44909 6.47901 36490 ft 448 kts 340°
2026-04-21 12:27 58.50749 6.43706 36473 ft 448 kts 340°
2026-04-21 12:27 58.53666 6.41600 36225 ft 448 kts 340°
2026-04-21 12:28 58.56585 6.39486 35970 ft 447 kts 340°
2026-04-21 12:28 58.59480 6.37388 35560 ft 444 kts 340°
2026-04-21 12:28 58.61391 6.36004 35208 ft 443 kts 340°
2026-04-21 12:28 58.64274 6.33916 34679 ft 442 kts 340°
2026-04-21 12:29 58.67147 6.31827 34095 ft 441 kts 339°
2026-04-21 12:29 58.70924 6.29071 33411 ft 437 kts 339°
2026-04-21 12:29 58.73760 6.27003 32885 ft 434 kts 339°
2026-04-21 12:29 58.76575 6.24951 32376 ft 431 kts 339°
2026-04-21 12:30 58.79370 6.22908 31869 ft 429 kts 339°
2026-04-21 12:30 58.81210 6.21561 31536 ft 427 kts 339°
2026-04-21 12:30 58.83978 6.19527 31040 ft 424 kts 339°
2026-04-21 12:30 58.86727 6.17498 30550 ft 422 kts 339°
2026-04-21 12:31 58.90374 6.14798 29863 ft 416 kts 338°
2026-04-21 12:31 58.92158 6.13477 29567 ft 413 kts 339°
2026-04-21 12:31 58.95685 6.10865 28968 ft 407 kts 339°
2026-04-21 12:31 58.98313 6.08911 28514 ft 402 kts 339°
2026-04-21 12:32 59.00075 6.07598 28211 ft 400 kts 339°
2026-04-21 12:32 59.02625 6.05706 27770 ft 396 kts 339°
2026-04-21 12:32 59.05188 6.03805 27340 ft 393 kts 339°
2026-04-21 12:32 59.07759 6.02125 26900 ft 388 kts 347°
2026-04-21 12:33 59.10397 6.01081 26443 ft 385 kts 349°
2026-04-21 12:33 59.13020 6.00087 25991 ft 383 kts 349°
2026-04-21 12:33 59.15628 5.99098 25537 ft 381 kts 349°
2026-04-21 12:33 59.19065 5.97789 24916 ft 379 kts 349°
2026-04-21 12:34 59.20807 5.97120 24602 ft 378 kts 349°
2026-04-21 12:34 59.23387 5.96133 24125 ft 377 kts 349°
2026-04-21 12:34 59.25925 5.95163 23604 ft 375 kts 349°
2026-04-21 12:34 59.28476 5.94192 23132 ft 372 kts 349°
2026-04-21 12:35 59.31009 5.93226 22672 ft 369 kts 349°
2026-04-21 12:35 59.33521 5.92259 22222 ft 367 kts 349°
2026-04-21 12:35 59.36016 5.91295 21768 ft 364 kts 349°
2026-04-21 12:35 59.39297 5.90026 21189 ft 361 kts 349°
2026-04-21 12:36 59.40962 5.89380 20885 ft 360 kts 349°
2026-04-21 12:36 59.43408 5.88481 20451 ft 357 kts 353°
2026-04-21 12:36 59.45879 5.88049 20015 ft 355 kts 356°
2026-04-21 12:36 59.48291 5.87662 19576 ft 347 kts 356°
2026-04-21 12:37 59.50650 5.87283 19179 ft 335 kts 356°
2026-04-21 12:37 59.52966 5.86904 18759 ft 332 kts 355°
2026-04-21 12:37 59.55255 5.86528 18333 ft 329 kts 356°
2026-04-21 12:37 59.57529 5.86160 17940 ft 327 kts 356°
2026-04-21 12:38 59.59792 5.85795 17536 ft 326 kts 355°
2026-04-21 12:38 59.62042 5.85427 17155 ft 324 kts 356°
2026-04-21 12:38 59.64284 5.85059 16766 ft 323 kts 356°
2026-04-21 12:38 59.66521 5.84693 16391 ft 322 kts 356°
2026-04-21 12:39 59.68746 5.84325 16014 ft 321 kts 355°
2026-04-21 12:39 59.70967 5.83957 15636 ft 320 kts 355°
2026-04-21 12:39 59.73149 5.83595 15254 ft 319 kts 355°
2026-04-21 12:39 59.75363 5.83230 14890 ft 318 kts 355°